Weather History for Ft Lauderdale, FL

Change the Weather History Date:

Friday, January 6, 2012

  Actual Average Record
Temperature  
Mean Temperature 61 °F 69 °F  
Max Temperature 73 °F 76 °F 85 °F (1990)
Min Temperature 49 °F 61 °F 34 °F (1956)
Degree Days  
Heating Degree Days 4 2  
Month to date heating degree days 36 12  
Since 1 July heating degree days 37 44  
Cooling Degree Days 0 6  
Month to date cooling degree days 8 36  
Year to date cooling degree days 8 36  
Growing Degree Days 10 (Base 50)    
Moisture  
Dew Point 49 °F    
Average Humidity 67    
Maximum Humidity 86    
Minimum Humidity 47    
Precipitation  
Precipitation 0.00 in 0.08 in 1.00 in (1958)
Month to date precipitation T 0.50  
Year to date precipitation T 0.50  
Snow  
Snow 0.00 in - - ()
Month to date snowfall 0.0  
Since 1 July snowfall 0.0  
Snow Depth 0.00 in    
Sea Level Pressure  
Sea Level Pressure 30.19 in    
Wind  
Wind Speed 4 mph (North)    
Max Wind Speed 12 mph    
Max Gust Speed 22 mph    
Visibility 10 miles    
Events      
T = Trace of Precipitation, MM = Missing Value Source: NWS Daily Summary

Daily Weather History Graph

Daily Weather History Graph

Search for Another Location

Airport:

Trip Planner

Search our weather history database for the weather conditions in past years. The results will help you decide how hot, cold, wet, or windy it might be!

Date:

Astronomy

Jan. 06, 2012 Rise Set
Actual Time 7:08 AM EST 5:43 PM EST
Civil Twilight 6:43 AM EST 6:08 PM EST
Nautical Twilight 6:15 AM EST 6:37 PM EST
Astronomical Twilight 5:47 AM EST 7:05 PM EST
Moon 3:35 PM EST (1/6) 4:45 AM EST (1/6)
Length of Visible Light 11h 25m
Length of Day
10h 34m
Waxing Gibbous, 93% of the Moon is Illuminated
Jan 6
Waxing Gibbous
Jan 9
Full
Jan 16
Last Quarter
Jan 23
New
Jan 30
First Quarter

Hourly Weather History & Observations

Time (EST) Temp. Dew Point Humidity Pressure Visibility Wind Dir Wind Speed Gust Speed Precip Events Conditions
12:53 AM 50.0 °F 44.6 °F 82% 30.21 in 10.0 mi Calm Calm - N/A   Clear
1:53 AM 48.2 °F 44.6 °F 87% 30.21 in 10.0 mi Calm Calm - N/A   Clear
2:53 AM 48.2 °F 44.6 °F 87% 30.20 in 10.0 mi Calm Calm - N/A   Clear
3:53 AM 51.8 °F 44.6 °F 76% 30.19 in 10.0 mi NW 6.9 mph - N/A   Clear
4:53 AM 50.0 °F 44.6 °F 82% 30.20 in 10.0 mi NW 4.6 mph - N/A   Clear
5:53 AM 50.0 °F 42.8 °F 76% 30.20 in 10.0 mi NW 6.9 mph - N/A   Clear
6:53 AM 51.8 °F 41.0 °F 67% 30.21 in 10.0 mi NW 5.8 mph - N/A   Partly Cloudy
7:53 AM 52.0 °F 39.9 °F 63% 30.22 in 10.0 mi NNW 4.6 mph - N/A   Partly Cloudy
8:53 AM 59.0 °F 46.9 °F 64% 30.24 in 10.0 mi NNW 8.1 mph - N/A   Clear
9:53 AM 64.9 °F 48.9 °F 56% 30.25 in 10.0 mi North 8.1 mph - N/A   Clear
10:53 AM 66.9 °F 48.0 °F 51% 30.24 in 10.0 mi NNW 5.8 mph - N/A   Clear
11:53 AM 69.1 °F 48.9 °F 49% 30.21 in 10.0 mi East 4.6 mph - N/A   Clear
12:53 PM 69.1 °F 52.0 °F 54% 30.19 in 10.0 mi Calm Calm - N/A   Partly Cloudy
1:53 PM 71.1 °F 53.1 °F 53% 30.17 in 10.0 mi ENE 8.1 mph - N/A   Partly Cloudy
2:53 PM 70.0 °F 53.1 °F 55% 30.15 in 10.0 mi East 8.1 mph - N/A   Partly Cloudy
3:53 PM 70.0 °F 54.0 °F 57% 30.15 in 10.0 mi ESE 8.1 mph - N/A   Partly Cloudy
4:53 PM 69.1 °F 52.0 °F 54% 30.16 in 10.0 mi East 6.9 mph - N/A   Partly Cloudy
5:53 PM 71.1 °F 51.1 °F 49% 30.15 in 10.0 mi Calm Calm - N/A   Partly Cloudy
6:53 PM 64.9 °F 51.1 °F 61% 30.16 in 10.0 mi Calm Calm - N/A   Partly Cloudy
7:53 PM 64.0 °F 51.1 °F 63% 30.17 in 10.0 mi Calm Calm - N/A   Partly Cloudy
8:53 PM 63.0 °F 52.0 °F 67% 30.17 in 10.0 mi Calm Calm - N/A   Mostly Cloudy
9:53 PM 64.0 °F 53.1 °F 67% 30.18 in 10.0 mi Calm Calm - N/A   Overcast
10:53 PM 63.0 °F 52.0 °F 67% 30.17 in 10.0 mi Calm Calm - N/A   Scattered Clouds
11:53 PM 61.0 °F 53.1 °F 75% 30.17 in 10.0 mi NNW 3.5 mph - N/A   Scattered Clouds